Regional Weather Roundup
Issued by NWS

Home | Current Version | Previous Version | Graphics & Text | Print | Product List | Glossary On
Versions: 1 2 3 4 5 6 7 8 9 10 11 12 13 14 15 16 17 18 19 20 21 22 23 24 25 26 27 28 29 30 31 32 33 34 35 36 37 38 39 40 41 42 43 44 45 46 47 48 49 50
000
ASUS43 KIND 270509
RWRIN

WEATHER ROUNDUP FOR INDIANA
NATIONAL WEATHER SERVICE INDIANAPOLIS IN
1200 AM EST SAT DEC 27 2014

NOTE: "FAIR" INDICATES FEW OR NO CLOUDS BELOW 12,000 FEET WITH NO
SIGNIFICANT WEATHER AND/OR OBSTRUCTIONS TO VISIBILITY.

* - STATION DOES NOT REPORT WEATHER SUCH AS PRECIPITATION OR FOG.

+ - STATION NOT QUALITY CONTROLLED BY THE NATIONAL WEATHER SERVICE.
    USE DATA WITH CAUTION...ESPECIALLY DEWPOINT AND RELATIVE
    HUMIDITY OBSERVATIONS.

INZ001>003-010>013-019-020-270600-
NORTHWEST INDIANA

CITY           SKY/WX    TMP DP  RH WIND       PRES   REMARKS
GARY /AIRPORT/ CLOUDY    50  40  69 S6        30.06S
KNOX *+        CLOUDY    43  37  78 S7        30.08R
LA PORTE +     CLOUDY    47  43  85 SW5       30.08R
MICHIGAN CITY+ CLOUDY    45  37  76 S7        30.08R
MONTICELLO +   PTCLDY    46  42  85 S6        30.08S
RENSSELAER +   CLOUDY    45  43  93 S9        30.08R
VALPARAISO     CLOUDY    45  41  86 S8        30.08R

$$

LMZ046-743>745-270600-
SOUTHERN LAKE MICHIGAN

STATION/POSITION TIME  TEMP WIND        PRES
                       AIR  DIR/SP/G
                 (UTC) (F)  (DEG/KT/KT) (MB)
MICHIGAN CITY    0500   47  160/ 11/ 14   N/A

$$

INZ004-005-014>016-021>024-270600-
NORTH CENTRAL INDIANA

CITY           SKY/WX    TMP DP  RH WIND       PRES   REMARKS
GOSHEN         CLOUDY    44  40  85 S6        30.09S
LOGANSPORT +   CLOUDY    43  39  87 S7        30.11S
PERU/GRISSOM   CLOUDY    47  47 100 S9        30.10S
ROCHESTER +    CLOUDY    48  43  81 S8        30.10S
SOUTH BEND     CLOUDY    47  41  80 SW8       30.09R
WARSAW +       CLOUDY    45  41  87 S5        30.09S

$$

INZ006>009-017-018-025>027-270600-
NORTHEAST INDIANA

CITY           SKY/WX    TMP DP  RH WIND       PRES   REMARKS
ANGOLA *+      MOCLDY    43  39  87 S6        30.10R
AUBURN +       CLOUDY    45  37  76 S7        30.12S
FORT WAYNE     CLOUDY    44  39  82 S7        30.13S
HUNTINGTON +   CLOUDY    45  40  83 S7        30.11F

$$

INZ028-029-035-036-043>045-051>053-270600-
WEST CENTRAL INDIANA

CITY           SKY/WX    TMP DP  RH WIND       PRES   REMARKS
CRAWFORDSVL +  CLOUDY    45  36  70 S13G18    30.11
GREENCASTLE +  CLOUDY    48  34  57 S8G18     30.13S
LAFAYETTE      CLOUDY    47  41  80 S6        30.09S
TERRE HAUTE    CLOUDY    49  40  71 S13       30.12F

$$

INZ030>032-037>040-046>048-054>057-064-065-270600-
CENTRAL INDIANA

CITY           SKY/WX    TMP DP  RH WIND       PRES   REMARKS
CP ATTERBURY + CLOUDY    46  36  66 MISG      30.17S
FRANKFORT +    CLOUDY    46  42  85 S6        30.12S
GREENWOOD *+   CLOUDY    46  37  71 S8        30.15S
INDIANAPOLIS   CLOUDY    46  39  76 S12       30.13S
-EAGLE CREEK   CLOUDY    47  39  74 S8        30.13S
KOKOMO *+      CLOUDY    45  39  81 S8        30.11S
MARION +       CLOUDY    45  39  80 S9        30.13S
MT COMFORT *+  CLOUDY    45  36  70 S8        30.14F
SHELBYVILLE    CLOUDY    46  38  73 S9        30.16R
ZIONSVILLE +   CLOUDY    47  39  73 S14       30.11F

$$

INZ033-034-041-042-049-050-058-059-270600-
EAST CENTRAL INDIANA

CITY           SKY/WX    TMP DP  RH WIND       PRES   REMARKS
MUNCIE         CLOUDY    47  38  71 S10G20    30.13S

$$

INZ060-061-067>069-081>083-085>088-270600-
SOUTHWEST INDIANA

CITY           SKY/WX    TMP DP  RH WIND       PRES   REMARKS
EVANSVILLE     CLOUDY    49  37  63 S9        30.17S
HUNTINGBURG *+ MOCLDY    46  37  71 S7        30.17S
WASHINGTON +   PTCLDY    44  35  70 S8        30.14F

$$

INZ062-063-066-070>080-084-089>092-270600-
SOUTH CENTRAL AND SOUTHEAST INDIANA

CITY           SKY/WX    TMP DP  RH WIND       PRES   REMARKS
BLOOMINGTON    CLOUDY    46  37  71 S6        30.15S
NORTH VERNON + MOCLDY    45  36  70 S3        30.19

$$



USA.gov is the U.S. government's official web portal to all federal, state and local government web resources and services.